Location: Unspecified
(40.7945°N, 0.0000°E)
Time: 14:52:44
(UTC+00:00)

Courier 1B - Visible Passes

Search period start: 25 January 2021 00:00
Search period end: 04 February 2021 00:00
Orbit: 962 x 1209 km, 28.3° (Epoch: 24 January)

Date Brightness Start Highest point End Pass type
(mag) Time Alt. Az. Time Alt. Az. Time Alt. Az.
28 Jan 10.0 20:22:57 10° SSW 20:23:05 10° SSW 20:23:05 10° SSW visible
29 Jan 9.7 19:30:31 10° S 19:32:51 12° SSE 19:32:51 12° SSE visible
30 Jan 9.7 20:27:33 10° SSW 20:29:31 16° SSW 20:29:31 16° SSW visible
31 Jan 9.3 19:34:19 10° SSW 19:39:13 19° SSE 19:39:15 19° SSE visible
01 Feb 9.5 18:41:21 10° SSW 18:45:36 16° SSE 18:48:57 12° SE visible
01 Feb 9.5 20:32:52 10° SW 20:35:51 21° SSW 20:35:51 21° SSW visible
02 Feb 9.7 17:48:53 10° S 17:51:59 13° SSE 17:55:02 10° SE visible
02 Feb 9.0 19:39:19 10° SW 19:45:11 25° SSE 19:45:33 25° SSE visible
02 Feb 10.3 21:32:25 10° WSW 21:32:27 10° WSW 21:32:27 10° WSW visible
03 Feb 9.3 18:45:54 10° SSW 18:51:32 23° SSE 18:55:14 16° SE visible
03 Feb 9.4 20:38:36 10° SW 20:42:08 24° SSW 20:42:08 24° SSW visible
